Time,TemperatureF,DewpointF,PressureIn,WindDirection,WindDirectionDegrees,WindSpeedMPH,WindSpeedGustMPH,Humidity,HourlyPrecipIn,Conditions,Clouds,dailyrainin,SoftwareType,DateUTC
2013-12-10 00:01:00,33.8,12.1,29.98,NW,305,0.0,2.7,40,0.00,,---,0.39,VWS V14.01,2013-12-10 05:01:00,
2013-12-10 00:02:00,33.8,12.1,29.98,NW,306,0.0,0.0,40,0.00,,---,0.39,VWS V14.01,2013-12-10 05:02:00,
2013-12-10 00:07:00,34.0,12.2,29.98,NNE,26,0.0,0.0,40,0.00,,---,0.00,VWS V14.01,2013-12-10 05:07:00,
2013-12-10 00:12:00,34.0,11.6,29.95,NNE,26,0.0,0.0,39,0.00,,---,0.00,VWS V14.01,2013-12-10 05:12:00,
2013-12-10 00:17:00,34.0,11.6,29.95,NNE,26,0.0,0.0,39,0.00,,---,0.00,VWS V14.01,2013-12-10 05:17:00,
2013-12-10 00:22:00,34.0,12.2,29.92,NNE,26,0.0,0.0,40,0.00,,---,0.00,VWS V14.01,2013-12-10 05:22:00,
2013-12-10 00:27:00,34.2,12.4,29.92,ESE,105,0.0,0.0,40,0.00,,---,0.00,VWS V14.01,2013-12-10 05:27:00,
2013-12-10 00:32:00,34.2,11.8,29.92,ESE,105,0.0,0.0,39,0.00,,---,0.00,VWS V14.01,2013-12-10 05:32:00,
2013-12-10 00:38:00,34.0,11.1,29.95,ESE,105,0.0,0.0,38,0.00,,---,0.00,VWS V14.01,2013-12-10 05:38:00,
2013-12-10 00:43:00,34.0,11.1,29.95,NE,52,0.0,0.0,38,0.00,,---,0.00,VWS V14.01,2013-12-10 05:43:00,
2013-12-10 00:48:00,34.0,11.1,29.95,NE,52,0.0,0.0,38,0.00,,---,0.00,VWS V14.01,2013-12-10 05:48:00,
2013-12-10 00:53:00,33.8,10.9,29.95,NE,53,0.0,0.0,38,0.00,,---,0.00,VWS V14.01,2013-12-10 05:53:00,
2013-12-10 00:58:00,33.8,10.3,29.95,NE,53,0.0,0.0,37,0.00,,---,0.00,VWS V14.01,2013-12-10 05:58:00,
2013-12-10 01:03:00,34.0,11.1,29.95,NE,52,0.0,0.0,38,0.00,,---,0.00,VWS V14.01,2013-12-10 06:03:00,
2013-12-10 01:08:00,34.2,11.2,29.95,NE,53,0.0,0.0,38,0.00,,---,0.00,VWS V14.01,2013-12-10 06:08:00,
2013-12-10 01:13:00,34.2,10.6,29.95,ESE,111,0.0,0.0,37,0.00,,---,0.00,VWS V14.01,2013-12-10 06:13:00,
2013-12-10 01:18:00,34.2,10.6,29.95,ESE,114,0.0,0.0,37,0.00,,---,0.00,VWS V14.01,2013-12-10 06:18:00,
2013-12-10 01:23:00,34.3,10.8,29.92,NE,55,3.1,3.6,37,0.00,,---,0.00,VWS V14.01,2013-12-10 06:23:00,
2013-12-10 01:28:00,34.3,10.8,29.92,East,91,0.0,0.0,37,0.00,,---,0.00,VWS V14.01,2013-12-10 06:28:00,
2013-12-10 01:33:00,34.3,10.2,29.92,East,80,0.0,0.0,36,0.00,,---,0.00,VWS V14.01,2013-12-10 06:33:00,
2013-12-10 01:38:00,34.3,10.2,29.92,East,80,0.0,0.0,36,0.00,,---,0.00,VWS V14.01,2013-12-10 06:38:00,
2013-12-10 01:43:00,34.2,10.0,29.92,ESE,118,0.0,0.0,36,0.00,,---,0.00,VWS V14.01,2013-12-10 06:43:00,
2013-12-10 01:48:00,34.2,10.0,29.92,ESE,118,0.0,0.0,36,0.00,,---,0.00,VWS V14.01,2013-12-10 06:48:00,
2013-12-10 01:53:00,34.0,9.2,29.95,ESE,118,0.0,0.0,35,0.00,,---,0.00,VWS V14.01,2013-12-10 06:53:00,
2013-12-10 01:58:00,34.0,9.2,29.95,ESE,118,0.0,0.0,35,0.00,,---,0.00,VWS V14.01,2013-12-10 06:58:00,
2013-12-10 02:03:00,34.0,9.2,29.95,ESE,118,0.0,0.0,35,0.00,,---,0.00,VWS V14.01,2013-12-10 07:03:00,
2013-12-10 02:08:00,34.0,9.2,29.95,ESE,118,0.0,0.0,35,0.00,,---,0.00,VWS V14.01,2013-12-10 07:08:00,
2013-12-10 02:13:00,34.0,9.2,29.95,East,99,0.0,0.0,35,0.00,,---,0.00,VWS V14.01,2013-12-10 07:13:00,
2013-12-10 02:18:00,34.0,9.2,29.95,East,93,0.0,0.0,35,0.00,,---,0.00,VWS V14.01,2013-12-10 07:18:00,
2013-12-10 02:23:00,34.2,9.4,29.92,NNE,12,0.0,0.0,35,0.00,,---,0.00,VWS V14.01,2013-12-10 07:23:00,
2013-12-10 02:28:00,34.3,9.5,29.92,NE,55,0.0,2.7,35,0.00,,---,0.00,VWS V14.01,2013-12-10 07:28:00,
2013-12-10 02:33:00,34.3,9.5,29.92,NNW,341,0.0,0.0,35,0.00,,---,0.00,VWS V14.01,2013-12-10 07:33:00,
2013-12-10 02:38:00,34.3,9.5,29.89,NE,45,0.0,0.0,35,0.00,,---,0.00,VWS V14.01,2013-12-10 07:38:00,
2013-12-10 02:43:00,34.2,9.4,29.89,NE,45,0.0,0.0,35,0.00,,---,0.00,VWS V14.01,2013-12-10 07:43:00,
2013-12-10 02:48:00,34.2,9.4,29.89,NE,45,0.0,0.0,35,0.00,,---,0.00,VWS V14.01,2013-12-10 07:48:00,
2013-12-10 02:53:00,33.8,9.1,29.95,SW,215,3.6,4.0,35,0.00,,---,0.00,VWS V14.01,2013-12-10 07:53:00,
2013-12-10 02:58:00,33.3,8.6,29.95,SW,221,0.0,0.0,35,0.00,,---,0.00,VWS V14.01,2013-12-10 07:58:00,
2013-12-10 03:03:00,33.1,8.4,29.95,West,279,2.2,2.2,35,0.00,,---,0.00,VWS V14.01,2013-12-10 08:03:00,
2013-12-10 03:08:00,33.3,9.2,29.92,ENE,72,0.0,0.0,36,0.00,,---,0.00,VWS V14.01,2013-12-10 08:08:00,
2013-12-10 03:13:00,33.4,9.4,29.92,ENE,71,0.0,0.0,36,0.00,,---,0.00,VWS V14.01,2013-12-10 08:13:00,
2013-12-10 03:19:00,33.4,9.4,29.92,ENE,71,0.0,0.0,36,0.00,,---,0.00,VWS V14.01,2013-12-10 08:19:00,
2013-12-10 03:24:00,33.6,9.5,29.92,ENE,70,0.0,0.0,36,0.00,,---,0.00,VWS V14.01,2013-12-10 08:24:00,
2013-12-10 03:29:00,33.6,9.5,29.92,ENE,70,0.0,0.0,36,0.00,,---,0.00,VWS V14.01,2013-12-10 08:29:00,
2013-12-10 03:34:00,33.6,9.5,29.92,ENE,70,0.0,0.0,36,0.00,,---,0.00,VWS V14.01,2013-12-10 08:34:00,
2013-12-10 03:39:00,33.6,9.5,29.92,ENE,70,0.0,0.0,36,0.00,,---,0.00,VWS V14.01,2013-12-10 08:39:00,
2013-12-10 03:44:00,33.6,9.5,29.92,ENE,70,0.0,0.0,36,0.00,,---,0.00,VWS V14.01,2013-12-10 08:44:00,
2013-12-10 03:49:00,33.6,9.5,29.92,SE,136,0.0,0.0,36,0.00,,---,0.00,VWS V14.01,2013-12-10 08:49:00,
2013-12-10 03:54:00,33.6,9.5,29.95,WSW,237,0.0,0.0,36,0.00,,---,0.00,VWS V14.01,2013-12-10 08:54:00,
2013-12-10 03:59:00,33.6,9.5,29.95,WSW,237,0.0,0.0,36,0.00,,---,0.00,VWS V14.01,2013-12-10 08:59:00,
2013-12-10 04:04:00,33.8,9.1,29.95,NE,40,0.0,0.0,35,0.00,,---,0.00,VWS V14.01,2013-12-10 09:04:00,
2013-12-10 04:09:00,33.8,9.1,29.92,NE,40,0.0,0.0,35,0.00,,---,0.00,VWS V14.01,2013-12-10 09:09:00,
2013-12-10 04:14:00,33.8,9.1,29.92,NE,40,0.0,0.0,35,0.00,,---,0.00,VWS V14.01,2013-12-10 09:14:00,
2013-12-10 04:19:00,33.6,9.5,29.92,NE,40,0.0,0.0,36,0.00,,---,0.00,VWS V14.01,2013-12-10 09:19:00,
2013-12-10 04:25:00,33.4,8.7,29.89,ENE,64,0.0,0.0,35,0.00,,---,0.00,VWS V14.01,2013-12-10 09:25:00,
2013-12-10 04:30:00,33.3,8.6,29.89,ENE,64,0.0,0.0,35,0.00,,---,0.00,VWS V14.01,2013-12-10 09:30:00,
2013-12-10 04:35:00,33.3,8.6,29.89,ENE,64,0.0,0.0,35,0.00,,---,0.00,VWS V14.01,2013-12-10 09:35:00,
2013-12-10 04:40:00,33.1,9.1,29.86,ENE,64,0.0,0.0,36,0.00,,---,0.00,VWS V14.01,2013-12-10 09:40:00,
2013-12-10 04:45:00,33.1,9.1,29.86,ENE,64,0.0,0.0,36,0.00,,---,0.00,VWS V14.01,2013-12-10 09:45:00,
2013-12-10 04:50:00,33.1,9.1,29.86,ENE,64,0.0,0.0,36,0.00,,---,0.00,VWS V14.01,2013-12-10 09:50:00,
2013-12-10 04:55:00,33.1,9.1,29.89,ENE,64,0.0,0.0,36,0.00,,---,0.00,VWS V14.01,2013-12-10 09:55:00,
2013-12-10 05:00:00,33.1,9.1,29.89,ENE,64,0.0,0.0,36,0.04,,---,0.04,VWS V14.01,2013-12-10 10:00:00,
2013-12-10 05:05:00,32.9,8.9,29.89,ENE,64,0.0,0.0,36,0.04,,---,0.04,VWS V14.01,2013-12-10 10:05:00,
2013-12-10 05:10:00,32.9,8.9,29.89,ENE,64,0.0,0.0,36,0.04,,---,0.04,VWS V14.01,2013-12-10 10:10:00,
2013-12-10 05:15:00,32.9,9.5,29.89,ENE,64,0.0,0.0,37,0.04,,---,0.04,VWS V14.01,2013-12-10 10:15:00,
2013-12-10 05:20:00,32.9,9.5,29.89,ENE,64,0.0,0.0,37,0.04,,---,0.04,VWS V14.01,2013-12-10 10:20:00,
2013-12-10 05:25:00,33.1,9.7,29.89,ENE,64,0.0,0.0,37,0.04,,---,0.04,VWS V14.01,2013-12-10 10:25:00,
2013-12-10 05:30:00,33.1,10.2,29.89,ENE,64,0.0,0.0,38,0.04,,---,0.04,VWS V14.01,2013-12-10 10:30:00,
2013-12-10 05:35:00,33.1,10.2,29.89,ENE,64,0.0,0.0,38,0.04,,---,0.04,VWS V14.01,2013-12-10 10:35:00,
2013-12-10 05:40:00,33.1,10.2,29.89,ENE,64,0.0,0.0,38,0.04,,---,0.04,VWS V14.01,2013-12-10 10:40:00,
2013-12-10 05:46:00,33.1,10.2,29.89,ENE,64,0.0,0.0,38,0.04,,---,0.04,VWS V14.01,2013-12-10 10:46:00,
2013-12-10 05:51:00,33.1,10.8,29.89,ENE,64,0.0,0.0,39,0.04,,---,0.04,VWS V14.01,2013-12-10 10:51:00,
2013-12-10 05:56:00,33.1,10.8,29.89,ENE,64,0.0,0.0,39,0.04,,---,0.04,VWS V14.01,2013-12-10 10:56:00,
2013-12-10 06:01:00,33.3,11.0,29.89,ENE,64,0.0,0.0,39,0.00,,---,0.04,VWS V14.01,2013-12-10 11:01:00,
2013-12-10 06:06:00,33.3,11.6,29.89,ENE,64,0.0,0.0,40,0.00,,---,0.04,VWS V14.01,2013-12-10 11:06:00,
2013-12-10 06:11:00,33.3,11.6,29.86,ENE,64,0.0,0.0,40,0.00,,---,0.04,VWS V14.01,2013-12-10 11:11:00,
2013-12-10 06:16:00,33.3,11.6,29.86,ENE,64,0.0,0.0,40,0.00,,---,0.04,VWS V14.01,2013-12-10 11:16:00,
2013-12-10 06:21:00,33.3,11.6,29.86,ENE,64,0.0,0.0,40,0.00,,---,0.04,VWS V14.01,2013-12-10 11:21:00,
2013-12-10 06:26:00,33.3,11.6,29.86,ENE,64,0.0,0.0,40,0.00,,---,0.04,VWS V14.01,2013-12-10 11:26:00,
2013-12-10 06:31:00,33.3,11.6,29.86,ENE,64,0.0,0.0,40,0.00,,---,0.04,VWS V14.01,2013-12-10 11:31:00,
2013-12-10 06:36:00,33.3,11.6,29.86,ENE,64,0.0,0.0,40,0.00,,---,0.04,VWS V14.01,2013-12-10 11:36:00,
2013-12-10 06:41:00,33.3,11.6,29.89,ENE,64,0.0,0.0,40,0.00,,---,0.04,VWS V14.01,2013-12-10 11:41:00,
2013-12-10 06:46:00,33.3,11.6,29.89,ENE,64,0.0,0.0,40,0.00,,---,0.04,VWS V14.01,2013-12-10 11:46:00,
2013-12-10 06:51:00,33.3,11.6,29.89,ENE,64,0.0,0.0,40,0.00,,---,0.04,VWS V14.01,2013-12-10 11:51:00,
2013-12-10 06:56:00,33.3,11.6,29.89,ENE,64,0.0,0.0,40,0.00,,---,0.04,VWS V14.01,2013-12-10 11:56:00,
2013-12-10 07:01:00,33.1,11.4,29.89,ENE,64,0.0,0.0,40,0.00,,---,0.04,VWS V14.01,2013-12-10 12:01:00,
2013-12-10 07:06:00,33.1,11.4,29.89,ENE,64,0.0,0.0,40,0.00,,---,0.04,VWS V14.01,2013-12-10 12:06:00,
2013-12-10 07:12:00,33.1,11.4,29.86,ENE,64,0.0,0.0,40,0.00,,---,0.04,VWS V14.01,2013-12-10 12:12:00,
2013-12-10 07:17:00,33.1,11.4,29.86,ENE,64,0.0,0.0,40,0.00,,---,0.04,VWS V14.01,2013-12-10 12:17:00,
2013-12-10 07:22:00,33.1,11.4,29.86,ENE,64,0.0,0.0,40,0.00,,---,0.04,VWS V14.01,2013-12-10 12:22:00,
2013-12-10 07:31:00,33.3,11.6,29.89,ENE,64,0.0,0.0,40,0.00,,---,0.04,VWS V14.01,2013-12-10 12:31:00,
2013-12-10 07:36:00,33.3,11.6,29.89,ENE,64,0.0,0.0,40,0.00,,---,0.04,VWS V14.01,2013-12-10 12:36:00,
2013-12-10 07:41:00,33.3,11.6,29.86,ENE,64,0.0,0.0,40,0.00,,---,0.04,VWS V14.01,2013-12-10 12:41:00,
2013-12-10 07:46:00,33.3,11.6,29.86,ENE,64,0.0,0.0,40,0.00,,---,0.04,VWS V14.01,2013-12-10 12:46:00,
2013-12-10 07:51:00,33.1,11.4,29.86,ENE,64,0.0,0.0,40,0.00,,---,0.04,VWS V14.01,2013-12-10 12:51:00,
2013-12-10 07:56:00,33.3,11.6,29.86,ENE,64,0.0,0.0,40,0.00,,---,0.04,VWS V14.01,2013-12-10 12:56:00,
2013-12-10 08:01:00,33.3,11.6,29.86,ENE,64,0.0,0.0,40,0.00,,---,0.04,VWS V14.01,2013-12-10 13:01:00,
2013-12-10 08:07:00,33.3,11.6,29.86,ENE,64,0.0,0.0,40,0.00,,---,0.04,VWS V14.01,2013-12-10 13:07:00,
2013-12-10 08:12:00,33.3,12.1,29.86,ENE,64,0.0,0.0,41,0.00,,---,0.04,VWS V14.01,2013-12-10 13:12:00,
2013-12-10 08:17:00,33.3,12.1,29.86,ENE,64,0.0,0.0,41,0.00,,---,0.04,VWS V14.01,2013-12-10 13:17:00,
2013-12-10 08:22:00,33.3,12.1,29.86,ENE,64,0.0,0.0,41,0.00,,---,0.04,VWS V14.01,2013-12-10 13:22:00,
2013-12-10 08:27:00,33.4,12.3,29.86,ENE,64,0.0,0.0,41,0.00,,---,0.04,VWS V14.01,2013-12-10 13:27:00,
2013-12-10 08:32:00,33.4,12.3,29.86,ENE,64,0.0,0.0,41,0.00,,---,0.04,VWS V14.01,2013-12-10 13:32:00,
2013-12-10 08:37:00,33.4,12.3,29.86,ENE,64,0.0,0.0,41,0.00,,---,0.04,VWS V14.01,2013-12-10 13:37:00,
2013-12-10 08:42:00,33.4,12.3,29.86,ENE,64,0.0,0.0,41,0.00,,---,0.04,VWS V14.01,2013-12-10 13:42:00,
2013-12-10 08:47:00,33.4,12.3,29.86,ENE,64,0.0,0.0,41,0.00,,---,0.04,VWS V14.01,2013-12-10 13:47:00,
2013-12-10 08:52:00,33.3,12.1,29.86,ENE,64,0.0,0.0,41,0.00,,---,0.04,VWS V14.01,2013-12-10 13:52:00,
2013-12-10 08:57:00,33.3,12.1,29.89,ENE,64,0.0,0.0,41,0.00,,---,0.04,VWS V14.01,2013-12-10 13:57:00,
2013-12-10 09:02:00,33.3,12.1,29.89,ENE,64,0.0,0.0,41,0.00,,---,0.04,VWS V14.01,2013-12-10 14:02:00,
2013-12-10 09:07:00,33.3,12.1,29.89,ENE,64,0.0,0.0,41,0.00,,---,0.04,VWS V14.01,2013-12-10 14:07:00,
2013-12-10 09:12:00,33.3,12.1,29.89,ENE,64,0.0,0.0,41,0.00,,---,0.04,VWS V14.01,2013-12-10 14:12:00,
2013-12-10 09:18:00,33.4,12.3,29.89,ENE,64,0.0,0.0,41,0.00,,---,0.04,VWS V14.01,2013-12-10 14:18:00,
2013-12-10 09:23:00,33.4,12.3,29.89,ENE,64,0.0,0.0,41,0.00,,---,0.04,VWS V14.01,2013-12-10 14:23:00,
2013-12-10 09:28:00,33.6,12.4,29.89,ENE,64,0.0,0.0,41,0.00,,---,0.04,VWS V14.01,2013-12-10 14:28:00,
2013-12-10 09:33:00,33.6,12.4,29.89,WNW,294,0.0,0.0,41,0.00,,---,0.04,VWS V14.01,2013-12-10 14:33:00,
2013-12-10 09:38:00,33.8,12.6,29.89,WSW,253,0.0,0.0,41,0.00,,---,0.04,VWS V14.01,2013-12-10 14:38:00,
2013-12-10 09:43:00,33.8,12.6,29.89,West,259,0.0,0.0,41,0.00,,---,0.04,VWS V14.01,2013-12-10 14:43:00,
2013-12-10 09:48:00,33.8,12.6,29.89,West,259,0.0,0.0,41,0.00,,---,0.04,VWS V14.01,2013-12-10 14:48:00,
2013-12-10 09:53:00,34.0,13.3,29.89,SW,232,0.0,0.0,42,0.00,,---,0.04,VWS V14.01,2013-12-10 14:53:00,
2013-12-10 09:59:00,34.2,13.5,29.89,WSW,247,0.0,0.0,42,0.00,,---,0.04,VWS V14.01,2013-12-10 14:59:00,
2013-12-10 10:04:00,34.3,13.6,29.89,WSW,241,0.0,0.0,42,0.00,,---,0.04,VWS V14.01,2013-12-10 15:04:00,
2013-12-10 10:09:00,34.5,13.8,29.89,WSW,241,0.0,0.0,42,0.00,,---,0.04,VWS V14.01,2013-12-10 15:09:00,
2013-12-10 10:14:00,34.5,13.8,29.89,SSW,207,0.0,0.0,42,0.00,,---,0.04,VWS V14.01,2013-12-10 15:14:00,
2013-12-10 10:19:00,34.5,14.3,29.89,NNE,25,0.0,0.0,43,0.00,,---,0.04,VWS V14.01,2013-12-10 15:19:00,
2013-12-10 10:24:00,34.5,14.3,29.89,NNE,25,0.0,0.0,43,0.00,,---,0.04,VWS V14.01,2013-12-10 15:24:00,
2013-12-10 10:29:00,34.7,14.5,29.89,SW,231,0.0,0.0,43,0.00,,---,0.04,VWS V14.01,2013-12-10 15:29:00,
2013-12-10 10:34:00,34.7,14.5,29.89,SW,227,2.7,2.7,43,0.00,,---,0.04,VWS V14.01,2013-12-10 15:34:00,
2013-12-10 10:39:00,34.9,14.7,29.89,WNW,295,3.1,3.6,43,0.00,,---,0.04,VWS V14.01,2013-12-10 15:39:00,
2013-12-10 10:44:00,34.9,14.1,29.89,SW,216,3.6,4.0,42,0.00,,---,0.04,VWS V14.01,2013-12-10 15:44:00,
2013-12-10 10:49:00,34.9,14.1,29.89,SSW,205,3.1,4.0,42,0.00,,---,0.04,VWS V14.01,2013-12-10 15:49:00,
2013-12-10 10:55:00,34.9,14.1,29.92,WSW,238,3.1,3.6,42,0.00,,---,0.04,VWS V14.01,2013-12-10 15:55:00,
2013-12-10 11:00:00,34.3,12.5,29.92,WSW,254,4.0,4.9,40,0.00,,---,0.04,VWS V14.01,2013-12-10 16:00:00,
2013-12-10 11:05:00,34.3,12.5,29.92,SW,223,3.1,3.6,40,0.00,,---,0.04,VWS V14.01,2013-12-10 16:05:00,
2013-12-10 11:10:00,34.2,12.4,29.89,SSW,212,3.6,3.6,40,0.00,,---,0.04,VWS V14.01,2013-12-10 16:10:00,
2013-12-10 11:15:00,33.8,12.1,29.89,SSW,201,5.4,5.4,40,0.00,,---,0.04,VWS V14.01,2013-12-10 16:15:00,
2013-12-10 11:20:00,33.8,11.5,29.89,SW,234,0.0,2.2,39,0.00,,---,0.04,VWS V14.01,2013-12-10 16:20:00,
2013-12-10 11:25:00,33.6,11.9,29.92,SW,229,3.6,3.6,40,0.00,,---,0.04,VWS V14.01,2013-12-10 16:25:00,
2013-12-10 11:30:00,33.6,11.9,29.92,SW,233,0.0,2.7,40,0.00,,---,0.04,VWS V14.01,2013-12-10 16:30:00,
2013-12-10 11:35:00,33.4,11.7,29.92,SSW,195,3.6,3.6,40,0.00,,---,0.04,VWS V14.01,2013-12-10 16:35:00,
2013-12-10 11:40:00,33.4,11.2,29.92,SSW,200,4.0,4.0,39,0.00,,---,0.04,VWS V14.01,2013-12-10 16:40:00,
2013-12-10 11:45:00,33.3,9.8,29.92,SE,128,3.6,4.9,37,0.00,,---,0.04,VWS V14.01,2013-12-10 16:45:00,
2013-12-10 11:50:00,33.3,9.2,29.92,SW,234,4.5,5.4,36,0.00,,---,0.04,VWS V14.01,2013-12-10 16:50:00,
2013-12-10 11:55:00,33.1,7.1,29.92,SSW,200,3.6,4.0,33,0.00,,---,0.04,VWS V14.01,2013-12-10 16:55:00,
2013-12-10 12:00:00,32.5,5.3,29.92,WSW,244,5.4,9.6,31,0.00,,---,0.04,VWS V14.01,2013-12-10 17:00:00,
2013-12-10 12:05:00,32.4,5.1,29.92,SW,234,8.1,8.1,31,0.00,,---,0.04,VWS V14.01,2013-12-10 17:05:00,
2013-12-10 12:11:00,32.2,5.0,29.95,WSW,239,0.0,0.0,31,0.00,,---,0.04,VWS V14.01,2013-12-10 17:11:00,
2013-12-10 12:16:00,32.0,4.1,29.95,SW,219,0.0,0.0,30,0.00,,---,0.04,VWS V14.01,2013-12-10 17:16:00,
2013-12-10 12:21:00,31.8,2.4,29.95,SW,219,0.0,0.0,28,0.00,,---,0.04,VWS V14.01,2013-12-10 17:21:00,
2013-12-10 12:25:00,31.5,2.1,29.95,SW,219,0.0,0.0,28,0.00,,---,0.04,VWS V14.01,2013-12-10 17:25:00,
2013-12-10 12:30:00,31.1,-2.4,29.95,SW,219,0.0,0.0,23,0.00,,---,0.04,VWS V14.01,2013-12-10 17:30:00,
2013-12-10 12:35:00,31.1,-0.6,29.95,SW,219,0.0,0.0,25,0.00,,---,0.04,VWS V14.01,2013-12-10 17:35:00,
2013-12-10 12:40:00,31.3,-2.2,29.92,SW,219,0.0,0.0,23,0.00,,---,0.04,VWS V14.01,2013-12-10 17:40:00,
2013-12-10 12:46:00,31.3,-2.2,29.92,SW,219,0.0,0.0,23,0.00,,---,0.04,VWS V14.01,2013-12-10 17:46:00,
2013-12-10 12:51:00,31.3,-2.2,29.92,SW,219,0.0,0.0,23,0.00,,---,0.04,VWS V14.01,2013-12-10 17:51:00,
2013-12-10 12:56:00,31.1,-5.3,29.95,SW,219,0.0,0.0,20,0.00,,---,0.04,VWS V14.01,2013-12-10 17:56:00,
2013-12-10 13:01:00,30.9,-5.4,29.95,SW,219,0.0,0.0,20,0.00,,---,0.04,VWS V14.01,2013-12-10 18:01:00,
2013-12-10 13:06:00,31.5,-5.0,29.95,SSW,198,0.0,0.0,20,0.00,,---,0.04,VWS V14.01,2013-12-10 18:06:00,
2013-12-10 13:11:00,32.2,-4.4,29.92,South,179,0.0,0.0,20,0.00,,---,0.04,VWS V14.01,2013-12-10 18:11:00,
2013-12-10 13:16:00,32.7,-3.9,29.92,SW,222,0.0,0.0,20,0.00,,---,0.04,VWS V14.01,2013-12-10 18:16:00,
2013-12-10 13:21:00,32.4,-4.2,29.92,SW,216,0.0,0.0,20,0.00,,---,0.04,VWS V14.01,2013-12-10 18:21:00,
2013-12-10 13:26:00,32.5,-4.1,29.92,South,171,6.3,6.3,20,0.00,,---,0.04,VWS V14.01,2013-12-10 18:26:00,
2013-12-10 13:31:00,32.2,-4.4,29.92,SW,225,4.9,4.9,20,0.00,,---,0.04,VWS V14.01,2013-12-10 18:31:00,
2013-12-10 13:36:00,31.6,-4.8,29.92,SE,130,3.6,4.9,20,0.00,,---,0.04,VWS V14.01,2013-12-10 18:36:00,
2013-12-10 13:41:00,31.1,-5.3,29.95,South,182,0.0,0.0,20,0.00,,---,0.04,VWS V14.01,2013-12-10 18:41:00,
2013-12-10 13:46:00,30.7,-5.6,29.95,South,187,0.0,0.0,20,0.00,,---,0.04,VWS V14.01,2013-12-10 18:46:00,
2013-12-10 13:51:00,30.4,-5.9,29.95,South,187,0.0,0.0,20,0.00,,---,0.04,VWS V14.01,2013-12-10 18:51:00,
2013-12-10 13:56:00,30.2,-6.0,29.95,South,187,0.0,0.0,20,0.00,,---,0.04,VWS V14.01,2013-12-10 18:56:00,
2013-12-10 14:01:00,30.0,-6.2,29.95,South,187,0.0,0.0,20,0.00,,---,0.04,VWS V14.01,2013-12-10 19:01:00,
2013-12-10 14:06:00,30.0,-6.2,29.95,South,187,0.0,0.0,20,0.00,,---,0.04,VWS V14.01,2013-12-10 19:06:00,
2013-12-10 14:11:00,30.0,-6.2,29.95,South,186,0.0,0.0,20,0.00,,---,0.04,VWS V14.01,2013-12-10 19:11:00,
2013-12-10 14:16:00,29.8,-6.3,29.95,South,187,0.0,0.0,20,0.00,,---,0.04,VWS V14.01,2013-12-10 19:16:00,
2013-12-10 14:21:00,29.8,-6.3,29.95,South,187,0.0,0.0,20,0.00,,---,0.04,VWS V14.01,2013-12-10 19:21:00,
2013-12-10 14:27:00,29.8,-6.3,29.98,South,187,0.0,0.0,20,0.00,,---,0.04,VWS V14.01,2013-12-10 19:27:00,
2013-12-10 14:32:00,29.7,-6.5,29.98,South,187,0.0,0.0,20,0.00,,---,0.04,VWS V14.01,2013-12-10 19:32:00,
2013-12-10 14:37:00,29.5,-6.6,29.98,South,187,0.0,0.0,20,0.00,,---,0.04,VWS V14.01,2013-12-10 19:37:00,
2013-12-10 14:42:00,29.5,-6.6,29.95,South,187,0.0,0.0,20,0.00,,---,0.04,VWS V14.01,2013-12-10 19:42:00,
2013-12-10 14:47:00,29.5,-6.6,29.95,South,187,0.0,0.0,20,0.00,,---,0.04,VWS V14.01,2013-12-10 19:47:00,
2013-12-10 14:52:00,29.7,-6.5,29.95,South,187,0.0,0.0,20,0.00,,---,0.04,VWS V14.01,2013-12-10 19:52:00,
2013-12-10 14:57:00,29.5,-6.6,29.98,South,187,0.0,0.0,20,0.00,,---,0.04,VWS V14.01,2013-12-10 19:57:00,
2013-12-10 15:02:00,29.5,-6.6,29.98,South,187,0.0,0.0,20,0.00,,---,0.04,VWS V14.01,2013-12-10 20:02:00,
2013-12-10 15:07:00,29.3,-6.8,29.98,South,187,0.0,0.0,20,0.00,,---,0.04,VWS V14.01,2013-12-10 20:07:00,
2013-12-10 15:12:00,29.1,-6.9,29.98,South,187,0.0,0.0,20,0.00,,---,0.04,VWS V14.01,2013-12-10 20:12:00,
2013-12-10 15:17:00,28.9,-7.1,29.98,South,187,0.0,0.0,20,0.00,,---,0.04,VWS V14.01,2013-12-10 20:17:00,
2013-12-10 15:22:00,28.8,-7.2,29.98,South,187,0.0,0.0,20,0.00,,---,0.04,VWS V14.01,2013-12-10 20:22:00,
2013-12-10 15:27:00,28.8,-7.2,29.98,South,187,0.0,0.0,20,0.00,,---,0.04,VWS V14.01,2013-12-10 20:27:00,
2013-12-10 15:32:00,28.8,-7.2,29.98,South,187,0.0,0.0,20,0.00,,---,0.04,VWS V14.01,2013-12-10 20:32:00,
2013-12-10 15:37:00,28.6,-7.4,29.98,South,187,0.0,0.0,20,0.00,,---,0.04,VWS V14.01,2013-12-10 20:37:00,
2013-12-10 15:42:00,28.4,-6.5,29.98,South,187,0.0,0.0,21,0.00,,---,0.04,VWS V14.01,2013-12-10 20:42:00,
2013-12-10 15:47:00,28.0,-6.8,29.98,South,187,0.0,0.0,21,0.00,,---,0.04,VWS V14.01,2013-12-10 20:47:00,
2013-12-10 15:52:00,27.9,-7.0,29.98,South,187,0.0,0.0,21,0.00,,---,0.04,VWS V14.01,2013-12-10 20:52:00,
2013-12-10 15:57:00,27.9,-7.0,29.98,South,187,0.0,0.0,21,0.00,,---,0.04,VWS V14.01,2013-12-10 20:57:00,
2013-12-10 16:02:00,28.2,-6.7,29.98,South,187,0.0,0.0,21,0.00,,---,0.04,VWS V14.01,2013-12-10 21:02:00,
2013-12-10 16:07:00,28.6,-7.4,29.98,South,187,0.0,0.0,20,0.00,,---,0.04,VWS V14.01,2013-12-10 21:07:00,
2013-12-10 16:12:00,28.8,-7.2,30.01,South,187,0.0,0.0,20,0.00,,---,0.04,VWS V14.01,2013-12-10 21:12:00,
2013-12-10 16:17:00,28.2,-6.7,30.01,South,187,0.0,0.0,21,0.00,,---,0.04,VWS V14.01,2013-12-10 21:17:00,
2013-12-10 16:22:00,27.9,-7.0,30.01,South,187,0.0,0.0,21,0.00,,---,0.04,VWS V14.01,2013-12-10 21:22:00,
2013-12-10 16:27:00,27.9,-7.0,30.01,South,187,0.0,0.0,21,0.00,,---,0.04,VWS V14.01,2013-12-10 21:27:00,
2013-12-10 16:32:00,28.2,-6.7,30.01,South,187,0.0,0.0,21,0.00,,---,0.04,VWS V14.01,2013-12-10 21:32:00,
2013-12-10 16:37:00,28.2,-6.7,30.01,South,187,0.0,0.0,21,0.00,,---,0.04,VWS V14.01,2013-12-10 21:37:00,
2013-12-10 16:42:00,27.9,-7.0,30.01,South,187,0.0,0.0,21,0.00,,---,0.04,VWS V14.01,2013-12-10 21:42:00,
2013-12-10 16:47:00,27.3,-7.4,30.01,South,187,0.0,0.0,21,0.00,,---,0.04,VWS V14.01,2013-12-10 21:47:00,
2013-12-10 16:52:00,27.3,-7.4,30.01,South,187,0.0,0.0,21,0.00,,---,0.04,VWS V14.01,2013-12-10 21:52:00,
2013-12-10 16:57:00,27.0,-7.8,30.01,South,187,0.0,0.0,21,0.00,,---,0.04,VWS V14.01,2013-12-10 21:57:00,
2013-12-10 17:02:00,26.6,-8.1,30.01,South,187,0.0,0.0,21,0.00,,---,0.04,VWS V14.01,2013-12-10 22:02:00,
2013-12-10 17:07:00,26.4,-8.2,30.01,South,187,0.0,0.0,21,0.00,,---,0.04,VWS V14.01,2013-12-10 22:07:00,
2013-12-10 17:12:00,26.2,-8.4,30.01,South,187,0.0,0.0,21,0.00,,---,0.04,VWS V14.01,2013-12-10 22:12:00,
2013-12-10 17:17:00,26.2,-8.4,30.01,South,187,0.0,0.0,21,0.00,,---,0.04,VWS V14.01,2013-12-10 22:17:00,
2013-12-10 17:23:00,26.1,-8.5,30.01,South,187,0.0,0.0,21,0.00,,---,0.04,VWS V14.01,2013-12-10 22:23:00,
2013-12-10 17:28:00,26.1,-8.5,30.01,South,187,0.0,0.0,21,0.00,,---,0.04,VWS V14.01,2013-12-10 22:28:00,
2013-12-10 17:33:00,26.1,-8.5,30.01,South,187,0.0,0.0,21,0.00,,---,0.04,VWS V14.01,2013-12-10 22:33:00,
2013-12-10 17:38:00,25.9,-8.7,30.01,South,187,0.0,0.0,21,0.00,,---,0.04,VWS V14.01,2013-12-10 22:38:00,
2013-12-10 17:43:00,25.9,-8.7,30.01,South,187,0.0,0.0,21,0.00,,---,0.04,VWS V14.01,2013-12-10 22:43:00,
2013-12-10 17:48:00,25.9,-8.7,30.01,South,187,0.0,0.0,21,0.00,,---,0.04,VWS V14.01,2013-12-10 22:48:00,
2013-12-10 17:53:00,25.7,-8.8,30.03,South,187,0.0,0.0,21,0.00,,---,0.04,VWS V14.01,2013-12-10 22:53:00,
2013-12-10 17:58:00,25.5,-9.0,30.03,South,187,0.0,0.0,21,0.00,,---,0.04,VWS V14.01,2013-12-10 22:58:00,
2013-12-10 18:03:00,25.3,-9.1,30.03,South,187,0.0,0.0,21,0.00,,---,0.04,VWS V14.01,2013-12-10 23:03:00,
2013-12-10 18:08:00,25.3,-9.1,30.03,South,187,0.0,0.0,21,0.00,,---,0.04,VWS V14.01,2013-12-10 23:08:00,
2013-12-10 18:13:00,25.5,-9.0,30.03,South,187,0.0,0.0,21,0.00,,---,0.04,VWS V14.01,2013-12-10 23:13:00,
2013-12-10 18:18:00,25.3,-9.1,30.03,South,187,0.0,0.0,21,0.00,,---,0.04,VWS V14.01,2013-12-10 23:18:00,
2013-12-10 18:23:00,25.5,-9.0,30.03,South,187,0.0,0.0,21,0.00,,---,0.04,VWS V14.01,2013-12-10 23:23:00,
2013-12-10 18:28:00,25.5,-9.0,30.03,South,187,0.0,0.0,21,0.00,,---,0.04,VWS V14.01,2013-12-10 23:28:00,
2013-12-10 18:33:00,25.3,-9.1,30.03,South,187,0.0,0.0,21,0.00,,---,0.04,VWS V14.01,2013-12-10 23:33:00,
2013-12-10 18:38:00,25.3,-9.1,30.03,South,187,0.0,0.0,21,0.00,,---,0.04,VWS V14.01,2013-12-10 23:38:00,
2013-12-10 18:43:00,25.3,-9.1,30.03,South,187,0.0,0.0,21,0.00,,---,0.04,VWS V14.01,2013-12-10 23:43:00,
2013-12-10 18:48:00,25.2,-9.3,30.03,South,187,0.0,0.0,21,0.00,,---,0.04,VWS V14.01,2013-12-10 23:48:00,
2013-12-10 18:54:00,25.3,-9.1,30.03,South,187,0.0,0.0,21,0.00,,---,0.04,VWS V14.01,2013-12-10 23:54:00,
2013-12-10 18:59:00,25.3,-9.1,30.03,South,187,0.0,0.0,21,0.00,,---,0.04,VWS V14.01,2013-12-10 23:59:00,
2013-12-10 19:04:00,25.3,-9.1,30.03,South,187,0.0,0.0,21,0.00,,---,0.04,VWS V14.01,2013-12-11 00:04:00,
2013-12-10 19:09:00,25.3,-9.1,30.03,South,187,0.0,0.0,21,0.00,,---,0.04,VWS V14.01,2013-12-11 00:09:00,
2013-12-10 19:14:00,25.2,-9.3,30.03,South,187,0.0,0.0,21,0.00,,---,0.04,VWS V14.01,2013-12-11 00:14:00,
2013-12-10 19:19:00,25.2,-9.3,30.03,South,187,0.0,0.0,21,0.00,,---,0.04,VWS V14.01,2013-12-11 00:19:00,
2013-12-10 19:24:00,25.2,-9.3,30.06,South,187,0.0,0.0,21,0.00,,---,0.04,VWS V14.01,2013-12-11 00:24:00,
2013-12-10 19:29:00,25.2,-9.3,30.06,South,187,0.0,0.0,21,0.00,,---,0.04,VWS V14.01,2013-12-11 00:29:00,
2013-12-10 19:34:00,25.3,-9.1,30.06,South,187,0.0,0.0,21,0.00,,---,0.04,VWS V14.01,2013-12-11 00:34:00,
2013-12-10 19:39:00,25.3,-9.1,30.06,South,187,0.0,0.0,21,0.00,,---,0.04,VWS V14.01,2013-12-11 00:39:00,
2013-12-10 19:44:00,25.3,-9.1,30.06,South,187,0.0,0.0,21,0.00,,---,0.04,VWS V14.01,2013-12-11 00:44:00,
2013-12-10 19:49:00,25.2,-9.3,30.06,South,187,0.0,0.0,21,0.00,,---,0.04,VWS V14.01,2013-12-11 00:49:00,
2013-12-10 19:54:00,25.0,-9.4,30.06,South,187,0.0,0.0,21,0.00,,---,0.04,VWS V14.01,2013-12-11 00:54:00,
2013-12-10 20:00:00,25.0,-9.4,30.06,South,187,0.0,0.0,21,0.00,,---,0.04,VWS V14.01,2013-12-11 01:00:00,
2013-12-10 20:05:00,25.0,-9.4,30.06,South,187,0.0,0.0,21,0.00,,---,0.04,VWS V14.01,2013-12-11 01:05:00,
2013-12-10 20:10:00,24.6,-8.8,30.06,South,187,0.0,0.0,22,0.00,,---,0.04,VWS V14.01,2013-12-11 01:10:00,
2013-12-10 20:15:00,24.6,-8.8,30.06,South,187,0.0,0.0,22,0.00,,---,0.04,VWS V14.01,2013-12-11 01:15:00,
2013-12-10 20:20:00,24.8,-8.6,30.06,South,187,0.0,0.0,22,0.00,,---,0.04,VWS V14.01,2013-12-11 01:20:00,
2013-12-10 20:25:00,25.0,-9.4,30.06,South,187,0.0,0.0,21,0.00,,---,0.04,VWS V14.01,2013-12-11 01:25:00,
2013-12-10 20:30:00,25.2,-9.3,30.06,South,187,0.0,0.0,21,0.00,,---,0.04,VWS V14.01,2013-12-11 01:30:00,
2013-12-10 20:35:00,25.3,-9.1,30.06,South,187,0.0,0.0,21,0.00,,---,0.04,VWS V14.01,2013-12-11 01:35:00,
2013-12-10 20:40:00,25.3,-9.1,30.06,South,187,0.0,0.0,21,0.00,,---,0.04,VWS V14.01,2013-12-11 01:40:00,
2013-12-10 20:45:00,25.3,-9.1,30.06,South,187,0.0,0.0,21,0.00,,---,0.04,VWS V14.01,2013-12-11 01:45:00,
2013-12-10 20:50:00,25.0,-9.4,30.06,South,187,0.0,0.0,21,0.00,,---,0.04,VWS V14.01,2013-12-11 01:50:00,
2013-12-10 20:55:00,24.6,-8.8,30.09,South,187,0.0,0.0,22,0.00,,---,0.04,VWS V14.01,2013-12-11 01:55:00,
2013-12-10 21:00:00,24.4,-8.9,30.09,South,187,0.0,0.0,22,0.00,,---,0.04,VWS V14.01,2013-12-11 02:00:00,
2013-12-10 21:05:00,24.4,-8.9,30.09,South,187,0.0,0.0,22,0.00,,---,0.04,VWS V14.01,2013-12-11 02:05:00,
2013-12-10 21:10:00,24.4,-8.9,30.09,South,187,0.0,0.0,22,0.00,,---,0.04,VWS V14.01,2013-12-11 02:10:00,
2013-12-10 21:15:00,24.3,-9.1,30.09,South,187,0.0,0.0,22,0.00,,---,0.04,VWS V14.01,2013-12-11 02:15:00,
2013-12-10 21:20:00,24.3,-9.1,30.09,South,187,0.0,0.0,22,0.00,,---,0.04,VWS V14.01,2013-12-11 02:20:00,
2013-12-10 21:25:00,23.9,-9.4,30.09,South,187,0.0,0.0,22,0.00,,---,0.04,VWS V14.01,2013-12-11 02:25:00,
2013-12-10 21:30:00,23.7,-9.6,30.09,South,187,0.0,0.0,22,0.00,,---,0.04,VWS V14.01,2013-12-11 02:30:00,
2013-12-10 21:35:00,23.9,-9.4,30.09,South,187,0.0,0.0,22,0.00,,---,0.04,VWS V14.01,2013-12-11 02:35:00,
2013-12-10 21:40:00,24.1,-9.2,30.09,South,187,0.0,0.0,22,0.00,,---,0.04,VWS V14.01,2013-12-11 02:40:00,
2013-12-10 21:45:00,23.7,-9.6,30.09,South,187,0.0,0.0,22,0.00,,---,0.04,VWS V14.01,2013-12-11 02:45:00,
2013-12-10 21:50:00,23.7,-9.6,30.09,South,187,0.0,0.0,22,0.00,,---,0.04,VWS V14.01,2013-12-11 02:50:00,
2013-12-10 21:55:00,23.5,-9.7,30.09,South,187,0.0,0.0,22,0.00,,---,0.04,VWS V14.01,2013-12-11 02:55:00,
2013-12-10 22:00:00,23.7,-9.6,30.09,South,187,0.0,0.0,22,0.00,,---,0.04,VWS V14.01,2013-12-11 03:00:00,
2013-12-10 22:05:00,23.7,-9.6,30.09,South,187,0.0,0.0,22,0.00,,---,0.04,VWS V14.01,2013-12-11 03:05:00,
2013-12-10 22:10:00,23.5,-9.7,30.12,South,187,0.0,0.0,22,0.00,,---,0.04,VWS V14.01,2013-12-11 03:10:00,
2013-12-10 22:15:00,23.5,-9.7,30.12,South,187,0.0,0.0,22,0.00,,---,0.04,VWS V14.01,2013-12-11 03:15:00,
2013-12-10 22:20:00,23.4,-9.9,30.12,South,187,0.0,0.0,22,0.00,,---,0.04,VWS V14.01,2013-12-11 03:20:00,
2013-12-10 22:25:00,23.2,-10.0,30.09,South,187,0.0,0.0,22,0.00,,---,0.04,VWS V14.01,2013-12-11 03:25:00,
2013-12-10 22:30:00,23.0,-10.2,30.09,South,187,0.0,0.0,22,0.00,,---,0.04,VWS V14.01,2013-12-11 03:30:00,
2013-12-10 22:35:00,23.2,-10.0,30.09,South,187,0.0,0.0,22,0.00,,---,0.04,VWS V14.01,2013-12-11 03:35:00,
2013-12-10 22:40:00,23.5,-9.7,30.09,South,187,0.0,0.0,22,0.00,,---,0.04,VWS V14.01,2013-12-11 03:40:00,
2013-12-10 22:45:00,23.5,-9.7,30.09,South,187,0.0,0.0,22,0.00,,---,0.04,VWS V14.01,2013-12-11 03:45:00,
2013-12-10 22:50:00,23.7,-9.6,30.09,South,187,0.0,0.0,22,0.00,,---,0.04,VWS V14.01,2013-12-11 03:50:00,
2013-12-10 22:55:00,23.7,-9.6,30.09,South,187,0.0,0.0,22,0.00,,---,0.04,VWS V14.01,2013-12-11 03:55:00,
2013-12-10 23:00:00,23.7,-9.6,30.09,South,187,0.0,0.0,22,0.00,,---,0.04,VWS V14.01,2013-12-11 04:00:00,
2013-12-10 23:05:00,23.7,-9.6,30.09,South,187,0.0,0.0,22,0.00,,---,0.04,VWS V14.01,2013-12-11 04:05:00,
2013-12-10 23:10:00,23.9,-9.4,30.09,South,187,0.0,0.0,22,0.00,,---,0.04,VWS V14.01,2013-12-11 04:10:00,
2013-12-10 23:16:00,24.1,-9.2,30.09,South,187,0.0,0.0,22,0.00,,---,0.04,VWS V14.01,2013-12-11 04:16:00,
2013-12-10 23:21:00,24.4,-8.9,30.09,South,187,0.0,0.0,22,0.00,,---,0.04,VWS V14.01,2013-12-11 04:21:00,
2013-12-10 23:26:00,24.6,-8.8,30.09,South,187,0.0,0.0,22,0.00,,---,0.04,VWS V14.01,2013-12-11 04:26:00,
2013-12-10 23:31:00,24.4,-8.9,30.09,South,187,0.0,0.0,22,0.00,,---,0.04,VWS V14.01,2013-12-11 04:31:00,
2013-12-10 23:36:00,24.4,-8.9,30.09,South,187,0.0,0.0,22,0.00,,---,0.04,VWS V14.01,2013-12-11 04:36:00,
2013-12-10 23:41:00,24.3,-9.1,30.09,South,187,0.0,0.0,22,0.00,,---,0.04,VWS V14.01,2013-12-11 04:41:00,
2013-12-10 23:46:00,24.1,-9.2,30.09,South,187,0.0,0.0,22,0.00,,---,0.04,VWS V14.01,2013-12-11 04:46:00,
2013-12-10 23:50:00,23.9,-9.4,30.09,South,187,0.0,0.0,22,0.00,,---,0.04,VWS V14.01,2013-12-11 04:50:00,
2013-12-10 23:55:00,23.5,-9.7,30.09,South,187,0.0,0.0,22,0.00,,---,0.04,VWS V14.01,2013-12-11 04:55:00,